Погода в Бесаранге-1

Узбекистан     40°34′06″N   71°46′40″E
темп.,
°C
ветер,
м/с
пор.,
м/с
влажн.,
%
обл.,
%
осадки,
мм/ч
давл.,
гПа
погр.,
м
31 июля, сб
сб3123:00+28зюз372488 0.0 1004131
02:00+24вюв33305 0.0 100528
05:00+24вюв22305 0.0 100614
08:00+30ссв342088 0.0 1006513
11:00+35с331499 0.0 10031882
14:00+38ссз32120 0.0 10002580
17:00+39з33119 0.0 9992768
20:00+32зсз3518100 0.0 100055
1 августа, вс
вс123:00+29ююз2223100 0.0 100112
02:00+27вюв22259 0.0 100011
05:00+26ю112791 0.0 100111
08:00+33з561881 0.0 1001663
11:00+37з771411 0.0 10001401
14:00+40з651298 0.0 9972827
17:00+39з861150 0.0 9972904
20:00+32юз5112187 0.0 999273
2 августа, пн
пн223:00+29ю352722 0.0 100055
02:00+25з11375 0.1 100013
05:00+21ю225841 0.8 100221
08:00+27в014030 0.4 1003214
11:00+35вюв11210 0.4 10011202
14:00+39з22140 0.0 9992796
17:00+39юз3312100 0.0 9973746
20:00+30ссв472999 0.0 1001145
3 августа, вт
вт323:00+25юв4540100 0.1 100366
02:00+26всв23345 0.0 100223
05:00+22вюв12490 0.0 100315
08:00+29ссв11290 0.0 1004341
11:00+37ссз21175 0.0 10021456
14:00+40зсз33120 0.0 9993180
17:00+36зюз111117100 0.0 1000937
20:00+28юв9153350 0.0 1003357
4 августа, ср
ср423:00+28в3330100 0.0 100337
02:00+24с23425 0.0 100444
05:00+22юз11480 0.0 100611
08:00+29ссв13310 0.0 1007444
11:00+37всв23160 0.0 10041860
14:00+40зсз24100 0.0 10013719
17:00+41зсз6782 0.0 10014475
20:00+28юв22314 0.0 100418